Miscellaneous Local Product
Issued by NWS North Platte, NE

Home | Current Version | Previous Version | Text Only | Print | Product List | Glossary On
Versions: 1 2 3 4 5 6 7 8 9 10 11 12 13 14 15 16 17 18 19 20 21 22 23 24 25 26 27 28 29 30 31 32 33 34 35 36 37 38 39 40 41 42 43 44 45 46 47 48 49 50
000
AXUS43 KLBF 260210
MISLBF


WESTERN AND NORTH CENTRAL NEBRASKA HOURLY WEATHER ROUNDUP
NATIONAL WEATHER SERVICE NORTH PLATTE NE
900 PM CDT SAT APR 25 2015

***STATIONS NOT REPORTING VARIABLES SUCH AS SKY/WEATHER OR
PRESSURE ARE PROVIDED BY THE NEBRASKA DEPARTMENT OF
ROADS...RAWS...AND APRS NETWORKS...AND ARE NOT UNDER
NATIONAL WEATHER SERVICE QUALITY CONTROL***

...OBSERVATIONS IN AND NEAR THE EASTERN PANHANDLE OF NEBRASKA...

CITY           SKY/WX    TMP DP  RH WIND       PRES   REMARKS
PINE RIDGE     CLOUDY    54  49  83 E13G23    29.77R
CHADRON        CLOUDY    54  47  77 E8        29.76R
ALLIANCE       CLOUDY    52  47  83 S12       29.76R
SIDNEY         CLOUDY    51  45  79 N16       29.78R
WHITECLAY        N/A     47  46  95 S6          N/A
CRESCENT LAKE    N/A     52  43  72 E13         N/A
BIG SPRINGS      N/A     62  50  65 E8          N/A
$$

...OBSERVATIONS IN NORTH CENTRAL NEBRASKA...

CITY           SKY/WX    TMP DP  RH WIND       PRES   REMARKS
VALENTINE      CLOUDY    54  45  71 E13       29.83R
THEDFORD       CLOUDY    53  47  79 E8        29.83R
AINSWORTH      CLOUDY    54  46  73 E10       29.83R
O`NEILL        MOCLDY    54  47  77 E6        29.83R
ORD            CLOUDY    53  45  74 E9        29.81R
BROKEN BOW     CLOUDY    52  46  80 E9        29.81R
BROWNLEE         N/A     55  47  74 E9          N/A
VALENTINE NWR    N/A     52  45  78 SE12        N/A
SPRINGVIEW       N/A     56  47  71 SE3         N/A
HALSEY           N/A     52  46  79 E7G14       N/A
BREWSTER         N/A     56  48  75 E6          N/A
ROSE             N/A     51  47  87 E5          N/A
NEWPORT          N/A     51  47  84 CALM        N/A
SARGENT          N/A     52  47  83 CALM        N/A
COMSTOCK         N/A     52  48  89 E6          N/A
EWING            N/A     51  44  77 E3          N/A
$$

...OBSERVATIONS IN SOUTHWEST NEBRASKA AND FAR NORTHEAST COLORADO...

CITY           SKY/WX    TMP DP  RH WIND       PRES   REMARKS
WRAY           FAIR      63  46  53 E15       29.71R
HOLYOKE        FAIR      61  46  59 E13       29.73R
IMPERIAL       MOCLDY    57  49  74 E15       29.75R
OGALLALA       CLOUDY    57  51  80 E18G26    29.76R
MCCOOK         PTCLDY    56  48  74 E14       29.75R
LEXINGTON      CLOUDY    51  47  87 E12       29.80R
PAXTON           N/A     58  51  78 E12         N/A
SUTHERLAND       N/A     50  46  87 E10         N/A
BRADY            N/A     49  45  85 CALM        N/A
GOTHENBURG       N/A     52  45  78 E12         N/A
CALLAWAY         N/A     52  48  86 E6          N/A
$$

...NORTH PLATTE AREA...

CITY           SKY/WX    TMP DP  RH WIND       PRES   REMARKS
$$

...SOME WEATHER OBSERVATIONS FROM AROUND THE REGION...

CITY           SKY/WX    TMP DP  RH WIND       PRES   REMARKS
DENVER         MOCLDY    54  38  54 N12       29.72S
LARAMIE        MOCLDY    43  35  73 E6        29.80R
CHEYENNE       MOCLDY    48  39  71 E10       29.79R
SCOTTSBLUFF    LGT RAIN  55  45  68 SE3       29.76R
RAPID CITY     LGT RAIN  51  48  89 NE3       29.82R
PIERRE         CLOUDY    55  46  71 SE9       29.84R
WINNER         CLOUDY    57  45  64 E7        29.85R
SIOUX FALLS    CLOUDY    55  39  54 E13       29.89R
OMAHA          CLOUDY    51  45  79 NE8       29.84R
GRAND ISLAND   CLOUDY    49  45  86 E13       29.83R
KANSAS CITY    CLOUDY    48  48 100 N9        29.76R FOG
WICHITA        CLEAR     63  54  72 NE16      29.71R
HAYS           PTCLDY    55  46  71 E12       29.75R
LIBERAL        CLEAR     70  37  30 E8        29.68R
GOODLAND       CLEAR     58  46  64 E14       29.72R
$$



USA.gov is the U.S. government's official web portal to all federal, state and local government web resources and services.